St. Johns, AZ

12:36 AM MST on October 15, 2019 (GMT -0700)
Saint Johns Industrial

Weather History for KSJN - August, 2019

Change the Weather History Date:

Sunday, August 4, 2019

  Actual Average (WUND) Record (WUND)
Temperature  
Mean Temperature 70 °F -  
Max Temperature 84 °F - - (-1)
Min Temperature 57 °F - - (-1)
Cooling Degree Days 6    
Growing Degree Days 20 (Base 50)    
Moisture  
Dew Point 53 °F    
Average Humidity 49    
Maximum Humidity 78    
Minimum Humidity 25    
Precipitation  
Precipitation 0.04 in - - ()
Sea Level Pressure  
Sea Level Pressure 29.97 in    
Wind  
Wind Speed 4 mph (East)    
Max Wind Speed 13 mph    
Max Gust Speed -    
Visibility 10 miles    
Events      
Averages and records for this station are not official NWS values.
T = Trace of Precipitation, MM = Missing Value Source: NWS Daily Summary

Daily Weather History Graph

Daily Weather History Graph

Search for Another Location

Airport or City:

Astronomy

Aug. 04, 2019 Rise Set
Actual Time 5:30 AM MST 7:16 PM MST
Civil Twilight 5:02 AM MST 7:44 PM MST
Nautical Twilight 4:29 AM MST 8:17 PM MST
Astronomical Twilight 3:54 AM MST 8:52 PM MST
Moon 9:30 AM MST (8/4) 10:08 PM MST (8/4)
Length of Visible Light 14h 41m
Length of Day
13h 46m
Waxing Crescent, 19% of the Moon is Illuminated
Aug 4
Waxing Crescent
Aug 7
First Quarter
Aug 15
Full
Aug 23
Last Quarter
Aug 30
New

Hourly Weather History & Observations

Time (MST) Temp. Heat Index Dew Point Humidity Pressure Visibility Wind Dir Wind Speed Gust Speed Precip Events Conditions
12:54 AM 68.0 °F - 55.0 °F 63% 29.95 in 10.0 mi East 5.8 mph - N/A   Clear
1:54 AM 68.0 °F - 55.0 °F 63% 29.96 in 10.0 mi East 6.9 mph - N/A   Partly Cloudy
2:54 AM 66.9 °F - 57.0 °F 70% 29.97 in 10.0 mi WNW 4.6 mph - N/A   Scattered Clouds
3:54 AM 66.9 °F - 57.0 °F 70% 29.96 in 10.0 mi ESE 3.5 mph - N/A   Partly Cloudy
4:54 AM 66.0 °F - 57.0 °F 73% 29.99 in 10.0 mi Calm Calm - N/A   Clear
5:54 AM 64.9 °F - 57.0 °F 75% 30.00 in 10.0 mi Calm Calm - N/A   Clear
6:54 AM 69.1 °F - 55.9 °F 63% 29.98 in 10.0 mi East 4.6 mph - N/A   Partly Cloudy
7:54 AM 73.0 °F - 57.0 °F 57% 30.00 in 10.0 mi NW 3.5 mph - N/A   Clear
8:54 AM 75.9 °F - 54.0 °F 46% 30.00 in 10.0 mi Calm Calm - N/A   Clear
9:54 AM 79.0 °F - 52.0 °F 39% 30.00 in 10.0 mi Calm Calm - N/A   Mostly Cloudy
10:54 AM 82.9 °F 81.8 °F 53.1 °F 36% 29.97 in 10.0 mi Variable 4.6 mph - N/A   Clear
11:54 AM 84.9 °F - 50.0 °F 30% 29.96 in 10.0 mi WNW 8.1 mph - N/A   Mostly Cloudy
12:54 PM 82.9 °F - 48.9 °F 31% 29.95 in 10.0 mi West 4.6 mph - N/A   Clear
1:54 PM 84.0 °F - 48.9 °F 29% 29.93 in 10.0 mi Calm Calm - N/A   Clear
2:54 PM 84.9 °F - 50.0 °F 30% 29.91 in 10.0 mi SSE 5.8 mph - N/A   Clear
3:54 PM 84.9 °F - 50.0 °F 30% 29.90 in 10.0 mi Calm Calm - N/A   Clear
4:54 PM 84.9 °F - 51.1 °F 31% 29.90 in 10.0 mi NNE 12.7 mph - N/A   Clear
5:54 PM 84.0 °F - 48.9 °F 29% 29.90 in 10.0 mi ENE 8.1 mph - N/A   Clear
6:54 PM 80.1 °F 79.9 °F 53.1 °F 39% 29.93 in 10.0 mi East 11.5 mph - N/A   Partly Cloudy
7:54 PM 78.1 °F - 54.0 °F 43% 29.93 in 10.0 mi SE 6.9 mph - N/A   Overcast
8:54 PM 77.0 °F - 53.1 °F 43% 29.94 in 10.0 mi SSE 4.6 mph - N/A   Mostly Cloudy
9:54 PM 73.0 °F - 54.0 °F 51% 29.95 in 10.0 mi Calm Calm - N/A   Partly Cloudy
10:54 PM 68.0 °F - 54.0 °F 61% 29.94 in 10.0 mi SW 4.6 mph - N/A   Clear
11:54 PM 69.1 °F - 54.0 °F 58% 29.93 in 10.0 mi ESE 4.6 mph - N/A   Clear